Left ArrowRight Arrow

40.92501, -98.34201

Hourly Observations for June 20, 2024

Temp ( °F °C ) Dew Point ( °F °C ) Humidity (%) Winds ( mph kmh ) Pressure ( in mb ) Visibility ( mi km ) Precip ( " mm )
12:34 am 00:34 Cloudy 66 18.9 61 16.1 84 84 E 7 11 30.23 1024 10 16 0.00 0.00
12:53 am 00:53 Cloudy 66 18.9 61 16.1 84 84 ESE 6 9 30.27 1025 10 16 0.00 0.00
1:53 am 01:53 Mostly Cloudy 65 18.3 61 16.1 87 87 E 6 9 30.24 1024 10 16 0.00 0.00
2:53 am 02:53 Mostly Cloudy 65 18.3 62 16.7 90 90 SE 8 13 30.24 1024 10 16 0.00 0.00
3:17 am 03:17 Cloudy 65 18.3 62 16.7 90 90 ESE 9 15 30.19 1022 10 16 0.00 0.00
3:39 am 03:39 Cloudy 65 18.3 62 16.7 90 90 ESE 10 17 30.19 1022 10 16 0.00 0.00
3:53 am 03:53 Cloudy 65 18.3 63 17.2 93 93 SE 9 15 30.22 1024 10 16 0.00 0.00
4:27 am 04:27 Cloudy with Mist and Fog 65 18.3 63 17.2 93 93 SE 9 15 30.19 1022 6 10 0.00 0.00
4:53 am 04:53 Cloudy with Mist and Fog 65 18.3 64 17.8 97 97 SSE 10 17 30.23 1024 5 8 0.00 0.00
5:53 am 05:53 Cloudy with Mist and Fog 66 18.9 65 18.3 96 96 SSE 8 13 30.23 1024 6 10 0.00 0.00
6:53 am 06:53 Cloudy with Mist and Fog 66 18.9 65 18.3 96 96 SSE 7 11 30.24 1024 4 6 0.00 0.00
7:23 am 07:23 Cloudy with Mist and Fog 67 19.4 66 18.9 97 97 SE 9 15 30.18 1022 3 4 0.00 0.00
7:31 am 07:31 Cloudy with Mist and Fog 67 19.4 66 18.9 97 97 SSE 8 13 30.18 1022 4 6 0.00 0.00
7:53 am 07:53 Cloudy 67 19.4 66 18.9 97 97 SE 12 19 30.22 1023 8 13 0.00 0.00
8:29 am 08:29 Cloudy 68 20 66 18.9 93 93 SSE 14 22 30.19 1022 10 16 0.00 0.00
8:53 am 08:53 Cloudy 69 20.6 66 18.9 90 90 SSE 9 15 30.24 1024 10 16 0.00 0.00
9:53 am 09:53 Cloudy 70 21.1 67 19.4 90 90 SSE 9 15 30.23 1024 10 16 0.00 0.00
10:53 am 10:53 Cloudy 71 21.7 68 20 90 90 S 10 17 30.22 1023 10 16 0.00 0.00
11:40 am 11:40 Cloudy 73 22.8 68 20 84 84 SSW 10 17 30.16 1021 9 14 0.00 0.00
11:53 am 11:53 Cloudy 74 23.3 69 20.6 85 85 S 10 17 30.22 1023 10 16 0.00 0.00
12:22 pm 12:22 Cloudy 76 24.4 69 20.6 79 79 S 13 20 30.13 1020 10 16 0.00 0.00
12:53 pm 12:53 Mostly Cloudy 79 26.1 70 21.1 74 74 S 13 20 30.19 1022 10 16 0.00 0.00
1:50 pm 13:50 Partly Cloudy 82 28 72 22 70 70 S 12 19 30.09 1019 10 16 0.00 0.00
1:53 pm 13:53 Mostly Cloudy 82 27.8 71 21.7 69 69 S 13 20 30.17 1022 10 16 0.00 0.00
2:53 pm 14:53 Partly Cloudy 85 29.4 71 21.7 63 63 S 14 22 30.14 1021 10 16 0.00 0.00
3:53 pm 15:53 Mostly Cloudy 87 30.6 70 21.1 57 57 S 16 26 30.13 1020 10 16 0.00 0.00
4:53 pm 16:53 Partly Cloudy 87 30.6 66 18.9 50 50 S 12 19 30.10 1019 10 16 0.00 0.00
5:53 pm 17:53 Mostly Cloudy 87 30.6 68 20 53 53 SSE 14 22 30.06 1018 10 16 0.00 0.00
6:53 pm 18:53 Partly Cloudy 86 30 67 19.4 53 53 SSE 15 24 30.05 1018 10 16 0.00 0.00
7:53 pm 19:53 Mostly Sunny 84 28.9 69 20.6 61 61 SSE 10 17 30.06 1018 10 16 0.00 0.00
8:53 pm 20:53 Mostly Cloudy 82 27.8 69 20.6 65 65 SSE 8 13 30.09 1019 10 16 0.00 0.00
9:53 pm 21:53 Cloudy 79 26.1 68 20 69 69 SSE 10 17 30.09 1019 10 16 0.00 0.00
10:53 pm 22:53 Clear 78 25.6 68 20 71 71 SSE 12 19 30.10 1019 10 16 0.00 0.00
11:53 pm 23:53 Clear 76 24.4 68 20 77 77 SSE 9 15 30.11 1020 10 16 0.00 0.00

Powered by Vaisala Xweather